This demonstration page uses our WeatherBlox Daily Observations layout. Learn more.

Hourly Observations for August 5, 2020

Temp ( °F °C ) Dew Point ( °F °C ) Humidity (%) Winds ( mph kmh ) Pressure ( in mb ) Visibility ( mi km ) Precip ( " mm )
12:54 am 00:54 Cloudy 65 18.3 55 12.8 70 70 SE 10 17 30.04 1017 10 16.0934 0 0
1:54 am 01:54 Cloudy 65 18.3 55 12.8 70 70 SSE 9 15 30.05 1018 10 16.0934 0 0
2:47 am 02:47 Cloudy with Nearby Thunderstorms 65 18.3 55 12.8 70 70 SSE 12 19 30.02 1017 10 16.0934 0 0
2:54 am 02:54 Cloudy with Nearby Thunderstorms 66 18.9 55 12.8 68 68 S 9 15 30.04 1017 10 16.0934 0 0
3:09 am 03:09 Cloudy with Thunderstorms 65 18.3 56 13.3 73 73 S 18 30 30.02 1017 5 8.0467 0.001 0.001
3:14 am 03:14 Cloudy with Heavy Thunderstorms 62 16.7 56 13.3 80 80 S 9 15 30.05 1018 1.75 2.816345 0.13 3.302
3:22 am 03:22 Cloudy with Light Thunderstorms 61 16.1 57 13.9 87 87 VRB 7 11 30.06 1018 3 4.82802 0.4 10.16
3:38 am 03:38 Cloudy with Nearby Thunderstorms 62 16.7 56 13.3 80 80 SE 13 20 30.05 1018 10 16.0934 0.4 10.16
3:54 am 03:54 Cloudy 62 16.7 56 13.3 80 80 SE 9 15 30.04 1017 10 16.0934 0.4 10.16
4:54 am 04:54 Mostly Cloudy 61 16.1 56 13.3 84 84 S 6 9 30.04 1017 10 16.0934 0 0
5:54 am 05:54 Cloudy 63 17.2 56 13.3 78 78 SSE 3 6 30.07 1018 10 16.0934 0 0
6:54 am 06:54 Mostly Cloudy 62 16.7 57 13.9 84 84 SSE 7 11 30.06 1018 9 14.48406 0 0
7:54 am 07:54 Cloudy 63 17.2 56 13.3 78 78 SSE 8 13 30.07 1018 9 14.48406 0 0
8:54 am 08:54 Cloudy 65 18.3 57 13.9 76 76 S 8 13 30.08 1019 9 14.48406 0 0
9:54 am 09:54 Cloudy 67 19.4 57 13.9 71 71 SSE 12 19 30.07 1018 9 14.48406 0 0
10:54 am 10:54 Cloudy 70 21.1 56 13.3 61 61 S 14 22 30.06 1018 9 14.48406 0 0
11:54 am 11:54 Cloudy 72 22.2 57 13.9 59 59 S 13 20 30.04 1017 9 14.48406 0 0
12:54 pm 12:54 Partly Cloudy 76 24.4 58 14.4 54 54 S 14 22 30.02 1017 9 14.48406 0 0
1:54 pm 13:54 Sunny 78 25.6 58 14.4 50 50 SSW 13 20 30.01 1016 9 14.48406 0 0
2:54 pm 14:54 Sunny 79 26.1 59 15 50 50 S 14 22 29.98 1015 9 14.48406 0 0
3:54 pm 15:54 Sunny 80 26.7 61 16.1 52 52 S 17 28 29.96 1015 9 14.48406 0 0
4:54 pm 16:54 Sunny 80 26.7 61 16.1 52 52 S 12 19 29.96 1015 9 14.48406 0 0
5:54 pm 17:54 Mostly Sunny 78 25.6 61 16.1 56 56 S 14 22 29.95 1014 9 14.48406 0 0
6:54 pm 18:54 Mostly Sunny 79 26.1 62 16.7 56 56 S 13 20 29.94 1014 9 14.48406 0 0
7:54 pm 19:54 Mostly Sunny 76 24.4 62 16.7 62 62 SSE 12 19 29.94 1014 9 14.48406 0 0
8:54 pm 20:54 Clear 74 23.3 62 16.7 67 67 SSE 12 19 29.94 1014 10 16.0934 0 0
9:54 pm 21:54 Clear 73 22.8 60 15.6 64 64 SSE 9 15 29.97 1015 10 16.0934 0 0
10:54 pm 22:54 Mostly Cloudy 71 21.7 60 15.6 68 68 SSE 13 20 29.98 1015 10 16.0934 0 0
11:54 pm 23:54 Clear 69 20.6 60 15.6 73 73 SSE 8 13 29.97 1015 10 16.0934 0 0

Powered by AerisWeather